AirNav   Everest Fuels
 
 1620 users online  

NR02 Jordan Field Airport
Mount Gilead, North Carolina, USA

GOING TO MOUNT GILEAD?


FAA INFORMATION EFFECTIVE 10 SEPTEMBER 2020

Location

FAA Identifier: NR02
Lat/Long: 35-14-16.0000N 079-59-44.0000W
35-14.266667N 079-59.733333W
35.2377778,-79.9955556
(estimated)
Elevation: 600 ft. / 183 m (estimated)
From city: 1 mile NE of MOUNT GILEAD, NC
Time zone: UTC -4 (UTC -5 during Standard Time)
Zip code: 27306

Airport Operations

Airport use: Private use. Permission required prior to landing
Activation date: 04/2007
Control tower: no
ARTCC: WASHINGTON CENTER
FSS: JONESBORO FLIGHT SERVICE STATION
Attendance: UNATNDD
Wind indicator: yes
Segmented circle: no

Airport Communications

WX AWOS-3 at VUJ (13 nm NW): 128.175 (704-986-2097)
WX AWOS-3 at AFP (14 nm S): 119.325 (704-695-0623)

Nearby radio navigation aids

VOR radial/distance  VOR name  Freq  Var
SDZr277/20.0SANDHILLS VORTAC111.8003W
CTFr024/37.8CHESTERFIELD VOR/DME108.2003W
LIBr212/39.2LIBERTY VORTAC113.0003W

 
NDB name  Hdg/Dist  Freq  Var  ID
MACKALL303/28.027806WHFF .... ..-. ..-.
BENNETTSVILLE349/39.223008WBES -... . ...

Airport Services

Runway Information

Runway 4/22

Dimensions: 3900 x 70 ft. / 1189 x 21 m
Surface: turf
RUNWAY 4  RUNWAY 22
Traffic pattern: leftleft
Obstructions: 100 ft. trees, 20 ft. from runway100 ft. trees, 20 ft. from runway

Airport Ownership and Management from official FAA records

Ownership: Privately-owned
Owner: JORDAN LUMBER COMPANY
1939 N. C. 109 S.
MOUNT GILEAD, NC 27306
Phone 910-439-6121
Manager: JACK JORDAN
1939 N. C.109 S.
MOUNT GILEAD, NC 27306
Phone (910) 439-8127

Additional Remarks

FOR CD CTC WASHINGTON ARTCC AT 703-771-3587.

Instrument Procedures

There are no published instrument procedures at NR02.

Some nearby airports with instrument procedures:

KVUJ - Stanly County Airport (13 nm NW)
43A - Montgomery County Airport (13 nm NE)
KAFP - Anson County Airport - Jeff Cloud Field (14 nm S)
KRCZ - Richmond County Airport (24 nm SE)
KHBI - Asheboro Regional Airport (25 nm N)
 
Loc | Ops | Rwys | IFR | FBO | Links
Com | Nav | Svcs | Stats | Notes
Area around NR02 (Jordan Field Airport)
 
Road maps at: MapQuest Bing Google
 
Aerial photo
No photo
 
Sectional chart

 
Airport distance calculator
Flying to Jordan Field Airport? Find the distance to fly.

From to NR02

Sunrise and sunset
Times for 30-Sep-2020
 Local
(UTC-4)
 Zulu
(UTC)
Morning civil twilight06:5010:50
Sunrise07:1611:16
Sunset19:0423:04
Evening civil twilight19:2923:29

Current date and time
Zulu (UTC)  30-Sep-2020 18:21:41
Local (UTC-4)  30-Sep-2020 14:21:41
 
METAR
KVUJ 
13nm NW 
301755Z AUTO 24007KT 210V270 10SM CLR 21/09 A3004 RMK AO2 LTG DSNT E T02080093 10208 20111
KAFP 
14nm S 
301755Z AUTO 24007KT 10SM CLR 22/09 A3000 RMK AO2 T02180092 10218 20117
KRCZ 
24nm SE 
301755Z AUTO 25010G14KT 240V300 10SM CLR 21/09 A3000 RMK AO2 T02100092 10211 20125
KHBI 
25nm N 
301755Z AUTO 27006KT 10SM CLR 20/09 A3002 RMK AO2 T01950085 10198 20108
TAF
KCLT 
47nm W 
301730Z 3018/0124 28007KT P6SM FEW250 FM010000 24006KT P6SM FEW250 FM011800 21006KT P6SM FEW090 FEW120
KPOB 
48nm E 
300900Z 3009/0115 29009KT 9999 SKC QNH2987INS BECMG 3014/3015 32012G18KT 9999 SKC QNH2992INS BECMG 3022/3023 33009KT 9999 SKC QNH2996INS TX22/3020Z TN11/0109Z
NOTAMs
Click for the latest NOTAMs
NOTAMs are issued by the DoD/FAA and will open in a separate window not controlled by AirNav.

 

 
 

Would you like to see your business listed on this page?

 If your business provides an interesting product or service to pilots, flight crews, aircraft, or users of the Jordan Field Airport, you should consider listing it here.  To start the listing process, click on the button below
 
Add a business
 

Other Pages about Jordan Field Airport

Update a link
 
Copyright © AirNav, LLC. All rights reserved. Privacy Policy  Contact